Location: Cypress Hills Dark-Sky Preserve - CHICO
(49.6176°N, 110.2634°W)
Time: 21:42:20
(UTC-06:00)

Amateur Radio Satellites - All Passes

Search period start: 24 September 2016 21:12
Search period end: 25 September 2016 21:12
Location: Cypress Hills Dark-Sky Preserve - CHICO, 49.6176°N, 110.2634°W

Satellite Date Start Highest point End Downlink Frequencies (MHz)
Time Altitude Azimuth
SEEDS 24 Sep 21:12:44 21:16:38 37° 263° (W) 21:20:36 437.485
CUBEBUG 2 24 Sep 21:17:03 21:21:13 60° 259° (W) 21:25:22 437.445
CINEMA 3 24 Sep 21:23:37 21:26:44 18° 269° (W) 21:29:47 145.822/145.860
Cosmos 2499 24 Sep 21:25:21 21:32:40 71° 265° (W) 21:40:31 435.465 / 435.565
STRAND 1 24 Sep 21:25:38 21:30:42 59° 290° (WNW) 21:35:46 437.568
HUMSAT D 24 Sep 21:37:01 21:40:15 23° 63° (ENE) 21:43:31 437.325/437.525
PRISM 24 Sep 21:37:40 21:41:06 24° 94° (E) 21:44:31 437.425
CUSAT 1 24 Sep 21:38:12 21:44:09 40° 296° (WNW) 21:51:17 437.405
FUNcube-1 24 Sep 21:40:13 21:44:22 84° 257° (WSW) 21:48:32 145.935
UWE-3 24 Sep 21:42:56 21:46:58 48° 261° (W) 21:51:00 435.000/436.395/437.385
AAUSAT CUBESAT 2 24 Sep 21:46:05 21:49:45 30° 265° (W) 21:53:30 437.432
HO-68 24 Sep 21:56:04 22:01:28 23° 271° (W) 22:06:54 435.675
DELFI C3 24 Sep 22:00:56 22:04:56 73° 74° (ENE) 22:08:58 145.870
ISS 24 Sep 22:07:14 22:09:18 16° 139° (SE) 22:11:23 145.825
RS-15 24 Sep 22:07:26 22:19:11 86° 126° (SE) 22:31:32 29.354- 29.394
SO-50 24 Sep 22:11:23 22:13:57 14° 11° (NNE) 22:16:28 436.795
ZACube-1 24 Sep 22:20:53 22:24:34 30° 265° (W) 22:28:17 437.345
Oscar 11 24 Sep 22:25:38 22:29:24 29° 265° (W) 22:33:14 145.826/435.025
AISAT 24 Sep 22:29:10 22:30:09 11° 53° (NE) 22:31:08 437.250
UNISAT 6 24 Sep 22:35:27 22:38:11 16° 90° (E) 22:40:54 437.425
DANDE 24 Sep 22:35:46 22:40:31 31° 300° (WNW) 22:46:33 436.750
AO-85 24 Sep 22:44:49 22:49:47 49° 122° (ESE) 22:54:27 145.980
AUBIESAT-1 24 Sep 22:53:01 22:55:28 16° 55° (NE) 22:57:48 437.475
ESTCUBE 1 24 Sep 22:55:20 22:59:15 29° 64° (ENE) 23:03:10 437.505/2401.250
50 SAT 24 Sep 23:00:46 23:02:39 14° 60° (ENE) 23:04:33 437.505
GONETS M04 24 Sep 23:04:33 23:10:29 21° 286° (WNW) 23:16:24
STRAND 1 24 Sep 23:07:11 23:08:52 12° 310° (NW) 23:10:34 437.568
ANTELSAT 24 Sep 23:10:07 23:14:05 33° 96° (E) 23:18:06 437.575/2403.000
VELOX 1 24 Sep 23:10:11 23:13:39 23° 62° (ENE) 23:17:08 145.980
HUMSAT D 24 Sep 23:11:50 23:15:41 40° 262° (W) 23:19:35 437.325/437.525
PRISM 24 Sep 23:12:40 23:16:32 37° 292° (WNW) 23:20:20 437.425
DX 1 24 Sep 23:14:38 23:17:31 17° 59° (ENE) 23:20:24 434.975-435.025
Cosmos 2499 24 Sep 23:20:40 23:24:31 15° 285° (WNW) 23:28:29 435.465 / 435.565
CUBEBUG 1 24 Sep 23:22:56 23:26:55 34° 67° (ENE) 23:30:56 437.445
M-CUBED/EXP-1 PRIME 24 Sep 23:25:41 23:29:31 37° 63° (ENE) 23:33:05 437.505
CUSAT 1 24 Sep 23:26:23 23:28:43 12° 321° (NW) 23:31:08 437.405
TIGRISAT 24 Sep 23:31:30 23:35:44 50° 100° (E) 23:40:03 435.000
DELFI C3 24 Sep 23:38:36 23:40:16 12° 272° (W) 23:41:58 145.870
ISS 24 Sep 23:42:05 23:45:21 69° 157° (SSE) 23:48:36 145.825
JAS-2 24 Sep 23:48:26 23:54:02 21° 84° (E) 23:59:32 435.910
QB50P2 24 Sep 23:49:08 23:51:18 14° 88° (E) 23:53:29 145.880/145.840
POLYITAN 1 24 Sep 23:51:23 23:53:33 14° 89° (E) 23:55:44 437.675
SO-50 24 Sep 23:51:39 23:55:50 31° 35° (NE) 23:59:55 436.795
AISAT 25 Sep 00:01:22 00:05:47 67° 72° (ENE) 00:10:14 437.250
UNISAT 6 25 Sep 00:11:00 00:15:19 64° 287° (WNW) 00:19:42 437.425
TISAT 1 25 Sep 00:19:21 00:21:39 15° 58° (ENE) 00:23:56 437.305
SPROUT 25 Sep 00:19:56 00:24:06 53° 71° (ENE) 00:28:16 437.525
RS-15 25 Sep 00:21:39 00:33:06 48° 336° (NNW) 00:44:59 29.354- 29.394
AUBIESAT-1 25 Sep 00:25:30 00:29:35 66° 251° (WSW) 00:33:24 437.475
AO-85 25 Sep 00:25:45 00:30:25 36° 321° (NW) 00:34:46 145.980
UKube-1 25 Sep 00:26:57 00:31:13 60° 71° (ENE) 00:35:30 .
QB50P1 25 Sep 00:31:30 00:35:19 33° 96° (E) 00:39:08 145.935-145.965
ESTCUBE 1 25 Sep 00:31:43 00:35:57 38° 263° (W) 00:40:12 437.505/2401.250
50 SAT 25 Sep 00:32:07 00:35:43 62° 258° (WSW) 00:39:22 437.505
DUCHIFAT 1 25 Sep 00:33:18 00:37:01 30° 96° (E) 00:40:44 145.980
POPSAT HIP 1 25 Sep 00:44:33 00:48:35 43° 99° (E) 00:52:37 437.405
VELOX 1 25 Sep 00:45:30 00:49:50 50° 260° (W) 00:54:12 145.980
ANTELSAT 25 Sep 00:46:56 00:50:46 31° 294° (WNW) 00:54:39 437.575/2403.000
DX 1 25 Sep 00:48:53 00:53:14 67° 257° (WSW) 00:57:37 434.975-435.025
BUGSAT 1 25 Sep 00:50:25 00:53:23 20° 92° (E) 00:56:20 437.445
Cosmos 2491 25 Sep 00:52:08 00:58:26 21° 52° (NE) 01:04:41 435.465 / 435.565
CUBEBUG 1 25 Sep 00:59:19 01:03:14 30° 265° (W) 01:07:09 437.445
M-CUBED/EXP-1 PRIME 25 Sep 01:00:38 01:04:06 25° 258° (WSW) 01:07:23 437.505
BEESAT 25 Sep 01:02:51 01:04:25 11° 52° (NE) 01:05:58 436.000
NANOSAT C BR1 25 Sep 01:03:15 01:07:26 65° 102° (ESE) 01:11:36 145.865
TIGRISAT 25 Sep 01:08:52 01:12:10 21° 298° (WNW) 01:15:29 435.000
ISS 25 Sep 01:18:40 01:21:55 58° 357° (N) 01:25:11 145.825
QB50P2 25 Sep 01:23:23 01:27:36 71° 287° (WNW) 01:31:48 145.880/145.840
POLYITAN 1 25 Sep 01:25:39 01:29:51 70° 287° (WNW) 01:34:03 437.675
SO-50 25 Sep 01:32:04 01:36:34 54° 236° (WSW) 01:40:57 436.795
JAS-2 25 Sep 01:32:13 01:40:09 82° 104° (ESE) 01:47:54 435.910
BEESAT 3 25 Sep 01:33:35 01:34:03 10° 109° (ESE) 01:34:31 437.485
AISAT 25 Sep 01:39:57 01:42:43 16° 271° (W) 01:45:29 437.250
TISAT 1 25 Sep 01:52:33 01:56:45 77° 256° (WSW) 02:00:58 437.305
SPROUT 25 Sep 01:57:23 02:00:21 18° 269° (W) 02:03:21 437.525
YUBILEINY 25 Sep 02:03:23 02:07:40 15° 70° (ENE) 02:11:58 435.215
UKube-1 25 Sep 02:04:49 02:07:39 17° 269° (W) 02:10:30 .
QB50P1 25 Sep 02:07:24 02:11:02 29° 295° (WNW) 02:14:40 145.935-145.965
ITUPSAT 1 25 Sep 02:08:40 02:13:02 37° 66° (ENE) 02:17:26 437.325
DUCHIFAT 1 25 Sep 02:09:01 02:12:42 31° 294° (WNW) 02:16:23 145.980
AO-85 25 Sep 02:09:27 02:12:07 15° 344° (NNW) 02:14:41 145.980
BEESAT 2 25 Sep 02:19:53 02:22:22 16° 113° (ESE) 02:24:51 435.950
POPSAT HIP 1 25 Sep 02:20:51 02:24:09 23° 297° (WNW) 02:27:27 437.405
SWISSCUBE 25 Sep 02:23:18 02:27:56 55° 70° (ENE) 02:32:37 437.505
BUGSAT 1 25 Sep 02:25:09 02:29:00 44° 290° (WNW) 02:32:48 437.445
BEESAT 25 Sep 02:36:36 02:41:18 65° 71° (ENE) 02:46:03 436.000
RS-15 25 Sep 02:37:49 02:49:11 41° 9° (N) 03:00:40 29.354- 29.394
NANOSAT C BR1 25 Sep 02:40:04 02:42:42 16° 301° (WNW) 02:45:21 145.865
Oscar 19 25 Sep 02:47:34 02:52:42 60° 102° (ESE) 02:57:47 437.125/150
Cosmos 2491 25 Sep 02:48:12 02:57:06 74° 77° (ENE) 03:05:55 435.465 / 435.565
ISS 25 Sep 02:55:18 02:58:35 85° 16° (NNE) 03:01:54 145.825
MOZHAYETS 4 25 Sep 02:56:30 02:59:56 21° 61° (ENE) 03:03:22
QB50P2 25 Sep 03:02:03 03:02:38 10° 306° (NW) 03:03:12 145.880/145.840
POLYITAN 1 25 Sep 03:04:22 03:04:52 10° 306° (NW) 03:05:24 437.675
BEESAT 3 25 Sep 03:07:05 03:11:00 80° 127° (SE) 03:14:58 437.485
Cosmos 2504 25 Sep 03:08:38 03:10:09 11° 71° (ENE) 03:11:40 435.465 / 435.565
AO-7 25 Sep 03:13:16 03:16:48 13° 82° (E) 03:20:19 29.400- 29.500
JAS-2 25 Sep 03:17:55 03:24:24 30° 305° (NW) 03:30:54 435.910
Gurwin Techsat 1B 25 Sep 03:18:46 03:24:02 57° 101° (E) 03:29:15 435.225
ITAMSAT 1 25 Sep 03:33:53 03:38:08 25° 93° (E) 03:42:21 435.822/435.867
KKS-1 25 Sep 03:44:52 03:49:00 38° 67° (ENE) 03:53:09 437.445
ITUPSAT 1 25 Sep 03:46:39 03:50:55 32° 264° (W) 03:55:13 437.325
AO-85 25 Sep 03:52:29 03:54:27 13° 9° (N) 03:56:22 145.980
YUBILEINY 25 Sep 03:54:00 04:02:38 64° 92° (E) 04:11:15 435.215
BEESAT 2 25 Sep 03:55:46 03:59:43 69° 313° (NW) 04:03:43 435.950
SWISSCUBE 25 Sep 04:02:26 04:06:04 21° 268° (W) 04:09:44 437.505
CUBESAT XI-V 25 Sep 04:07:48 04:10:51 17° 58° (ENE) 04:13:56 437.345
AIST 2 25 Sep 04:16:02 04:16:52 10° 108° (ESE) 04:17:40 435.215
BEESAT 25 Sep 04:16:19 04:19:32 18° 270° (W) 04:22:49 436.000
STARS 25 Sep 04:27:24 04:31:38 50° 70° (ENE) 04:35:54 437.465
Oscar 19 25 Sep 04:27:34 04:31:39 24° 301° (WNW) 04:35:42 437.125/150
ISS 25 Sep 04:32:02 04:34:51 26° 215° (SW) 04:37:39 145.825
MOZHAYETS 4 25 Sep 04:32:14 04:36:44 56° 260° (W) 04:41:17
CUSAT 1 25 Sep 04:44:03 04:48:41 16° 46° (NE) 04:53:10 437.405
Cosmos 2491 25 Sep 04:45:53 04:53:10 30° 280° (W) 05:00:26 435.465 / 435.565
BEESAT 3 25 Sep 04:46:08 04:49:08 20° 328° (NNW) 04:52:10 437.485
RS-15 25 Sep 04:52:02 05:04:24 67° 41° (NE) 05:16:37 29.354- 29.394
Cosmos 2504 25 Sep 04:54:42 05:01:55 58° 92° (E) 05:08:55 435.465 / 435.565
Gurwin Techsat 1B 25 Sep 04:59:18 05:03:40 26° 300° (WNW) 05:08:00 435.225
AO-7 25 Sep 05:03:11 05:11:24 60° 104° (ESE) 05:19:34 29.400- 29.500
ITAMSAT 1 25 Sep 05:12:50 05:17:55 55° 291° (WNW) 05:23:00 435.822/435.867
PCSat 25 Sep 05:17:24 05:21:53 27° 110° (ESE) 05:26:23 145.827
KKS-1 25 Sep 05:21:53 05:25:41 27° 265° (W) 05:29:29 437.445
AO-85 25 Sep 05:32:39 05:36:25 27° 33° (NNE) 05:39:56 145.980
BEESAT 2 25 Sep 05:35:37 05:38:15 17° 333° (NNW) 05:40:54 435.950
DANDE 25 Sep 05:42:34 05:48:11 20° 52° (NE) 05:53:55 436.750
CUBESAT XI-V 25 Sep 05:42:59 05:47:41 76° 256° (WSW) 05:52:27 437.345
AIST 2 25 Sep 05:50:28 05:54:35 78° 127° (SE) 05:58:45 435.215
YUBILEINY 25 Sep 05:52:06 06:00:01 36° 296° (WNW) 06:07:58 435.215
AIST 1 25 Sep 05:57:44 06:01:48 39° 92° (E) 06:05:54
STARS 25 Sep 06:05:00 06:08:17 20° 268° (W) 06:11:34 437.465
CUSAT 1 25 Sep 06:24:53 06:32:46 54° 70° (ENE) 06:39:46 437.405
HORYU 2 25 Sep 06:27:59 06:32:22 55° 101° (E) 06:36:44 437.375
NOAA 15 25 Sep 06:43:38 06:48:01 25° 93° (E) 06:52:20 137.62
Cubesat XI-IV 25 Sep 06:48:27 06:52:40 23° 91° (E) 06:56:53 437.490
Cosmos 2504 25 Sep 06:49:14 06:55:42 32° 294° (WNW) 07:02:04 435.465 / 435.565
CUTE-I 25 Sep 06:49:36 06:53:54 24° 92° (E) 06:58:10 437.470
BRITE-PL 25 Sep 06:54:44 06:59:47 62° 100° (E) 07:04:23 437.365/2234.400
ITAMSAT 1 25 Sep 06:54:56 06:56:19 11° 312° (NW) 06:57:43 435.822/435.867
AO-7 25 Sep 06:56:22 07:03:56 41° 305° (NW) 07:11:29 29.400- 29.500
PCSat 25 Sep 06:59:34 07:04:56 61° 310° (NW) 07:10:20 145.827
GOMX 1 25 Sep 07:00:36 07:04:40 31° 94° (E) 07:08:31 467.674
NOAA 18 25 Sep 07:04:04 07:08:33 25° 93° (E) 07:13:01 137.9125
RS-15 25 Sep 07:05:03 07:16:43 52° 247° (WSW) 07:28:12 29.354- 29.394
STRAND 1 25 Sep 07:06:58 07:11:52 49° 68° (ENE) 07:16:47 437.568
AO-85 25 Sep 07:12:59 07:17:10 57° 236° (WSW) 07:21:04 145.980
LilacSat-2 25 Sep 07:20:51 07:24:30 41° 98° (E) 07:28:09 437.200
DANDE 25 Sep 07:24:25 07:32:35 64° 73° (ENE) 07:40:46 436.750
CUBESAT XI-V 25 Sep 07:25:15 07:25:54 10° 276° (W) 07:26:34 437.345
AIST 2 25 Sep 07:30:15 07:33:32 22° 328° (NNW) 07:36:51 435.215
O/OREOS (USA 219) 25 Sep 07:30:54 07:33:05 13° 98° (E) 07:35:18 437.305
HO-68 25 Sep 07:31:34 07:34:00 12° 81° (E) 07:36:28 435.675
AIST 1 25 Sep 07:35:54 07:39:32 25° 291° (WNW) 07:43:11
DOVE 4 25 Sep 07:37:50 07:41:40 30° 95° (E) 07:45:21 437.250
HORYU 2 25 Sep 08:05:17 08:08:35 21° 300° (WNW) 08:11:52 437.375
BEESAT 3 25 Sep 08:06:23 08:07:44 11° 16° (NNE) 08:09:04 437.485
CUSAT 1 25 Sep 08:07:17 08:14:37 41° 272° (W) 08:21:10 437.405
GONETS M04 25 Sep 08:18:08 08:24:54 26° 78° (ENE) 08:31:42
Cosmos 2499 25 Sep 08:18:08 08:22:18 17° 76° (ENE) 08:26:26 435.465 / 435.565
NOAA 15 25 Sep 08:22:55 08:28:07 55° 292° (WNW) 08:33:16 137.62
Cubesat XI-IV 25 Sep 08:27:53 08:33:09 60° 291° (WNW) 08:38:25 437.490
CUTE-I 25 Sep 08:29:03 08:34:19 58° 291° (WNW) 08:39:33 437.470
PRISM 25 Sep 08:30:53 08:34:37 32° 66° (ENE) 08:38:22 437.425
COMPASS 1 25 Sep 08:30:59 08:32:33 12° 87° (E) 08:34:07 437.405
BRITE-PL 25 Sep 08:33:58 08:37:46 22° 301° (WNW) 08:41:21 437.365/2234.400
GOMX 1 25 Sep 08:38:40 08:42:48 33° 295° (WNW) 08:46:42 467.674
NOAA 18 25 Sep 08:44:13 08:49:34 57° 292° (WNW) 08:54:55 137.9125
CUTE 1.7 + AOD 2 25 Sep 08:44:47 08:48:39 31° 95° (E) 08:52:29 437.475
CANX-2 25 Sep 08:45:19 08:49:20 36° 97° (E) 08:53:17 2200.000
PCSat 25 Sep 08:45:34 08:49:27 19° 334° (NNW) 08:53:20 145.827
STRAND 1 25 Sep 08:47:01 08:51:17 27° 267° (W) 08:55:35 437.568
AO-7 25 Sep 08:50:38 08:54:33 14° 330° (NNW) 08:58:28 29.400- 29.500
SEEDS 25 Sep 08:52:05 08:55:44 27° 94° (E) 08:59:21 437.485
BEESAT 2 25 Sep 08:55:11 08:57:15 14° 21° (NNE) 08:59:20 435.950
LilacSat-2 25 Sep 08:55:45 08:58:34 20° 296° (WNW) 09:01:24 437.200
TIGRISAT 25 Sep 09:01:36 09:02:35 11° 55° (NE) 09:03:34 435.000
CUBEBUG 2 25 Sep 09:03:41 09:06:50 20° 92° (E) 09:10:00 437.445
O/OREOS (USA 219) 25 Sep 09:07:14 09:11:49 84° 299° (WNW) 09:16:27 437.305
DANDE 25 Sep 09:07:41 09:15:03 38° 273° (W) 09:22:23 436.750
CINEMA 3 25 Sep 09:11:52 09:16:02 76° 104° (ESE) 09:20:13 145.822/145.860
AIST 2 25 Sep 09:12:39 09:13:32 11° 352° (N) 09:14:25 435.215
DOVE 4 25 Sep 09:15:36 09:19:22 30° 295° (WNW) 09:23:02 437.250
HO-68 25 Sep 09:16:11 09:23:17 60° 102° (ESE) 09:30:19 435.675
RS-15 25 Sep 09:22:04 09:25:54 12° 271° (W) 09:29:43 29.354- 29.394
AAUSAT CUBESAT 2 25 Sep 09:23:29 09:27:15 31° 95° (E) 09:30:59 437.432
FUNcube-1 25 Sep 09:24:52 09:27:09 14° 89° (E) 09:29:26 145.935
UWE-3 25 Sep 09:28:01 09:31:29 24° 93° (E) 09:35:00 435.000/436.395/437.385
UNISAT 6 25 Sep 09:38:23 09:41:47 24° 63° (ENE) 09:45:12 437.425
BEESAT 3 25 Sep 09:42:58 09:46:34 31° 39° (NE) 09:50:10 437.485
ZACube-1 25 Sep 10:03:57 10:07:53 35° 96° (E) 10:11:53 437.345
COMPASS 1 25 Sep 10:04:27 10:08:42 83° 285° (WNW) 10:12:55 437.405
NOAA 15 25 Sep 10:05:13 10:06:47 11° 312° (NW) 10:08:20 137.62
PRISM 25 Sep 10:06:17 10:09:55 29° 264° (W) 10:13:36 437.425
Cosmos 2499 25 Sep 10:07:06 10:14:16 83° 97° (E) 10:21:22 435.465 / 435.565
JAS-2 25 Sep 10:07:14 10:11:14 17° 44° (NE) 10:15:28 435.910
Oscar 11 25 Sep 10:07:46 10:11:49 37° 97° (E) 10:15:52 145.826/435.025
Cubesat XI-IV 25 Sep 10:10:07 10:12:12 12° 311° (NW) 10:14:16 437.490
CUTE-I 25 Sep 10:11:24 10:13:19 12° 311° (NW) 10:15:14 437.470
GONETS M04 25 Sep 10:11:49 10:20:41 84° 279° (W) 10:29:38
ANTELSAT 25 Sep 10:13:03 10:17:09 48° 70° (ENE) 10:21:16 437.575/2403.000
CUTE 1.7 + AOD 2 25 Sep 10:20:39 10:24:28 31° 294° (WNW) 10:28:17 437.475
CANX-2 25 Sep 10:21:24 10:25:04 28° 295° (WNW) 10:28:44 2200.000
NANOSAT C BR1 25 Sep 10:26:47 10:28:21 12° 56° (NE) 10:29:55 145.865
NOAA 18 25 Sep 10:27:06 10:29:08 12° 312° (NW) 10:31:12 137.9125
SEEDS 25 Sep 10:27:36 10:31:31 36° 292° (WNW) 10:35:25 437.485
BEESAT 2 25 Sep 10:32:10 10:36:03 44° 43° (NE) 10:39:55 435.950
PCSat 25 Sep 10:32:54 10:35:06 12° 360° (N) 10:37:17 145.827
TIGRISAT 25 Sep 10:34:17 10:38:32 74° 74° (ENE) 10:42:47 435.000
CUBEBUG 2 25 Sep 10:39:38 10:43:43 48° 289° (WNW) 10:47:52 437.445
QB50P2 25 Sep 10:45:39 10:48:39 19° 61° (ENE) 10:51:40 145.880/145.840
POLYITAN 1 25 Sep 10:47:54 10:50:54 19° 61° (ENE) 10:53:54 437.675
O/OREOS (USA 219) 25 Sep 10:49:05 10:51:59 16° 318° (NW) 10:54:54 437.305
CINEMA 3 25 Sep 10:50:28 10:52:39 14° 302° (WNW) 10:54:50 145.822/145.860
HUMSAT D 25 Sep 10:50:46 10:54:12 23° 93° (E) 10:57:38 437.325/437.525
AIST 2 25 Sep 10:51:59 10:53:51 13° 17° (NNE) 10:55:42 435.215
AAUSAT CUBESAT 2 25 Sep 10:59:00 11:02:43 31° 293° (WNW) 11:06:23 437.432
FUNcube-1 25 Sep 10:59:36 11:03:52 72° 287° (WNW) 11:08:13 145.935
UWE-3 25 Sep 11:04:07 11:08:06 41° 291° (WNW) 11:12:10 435.000/436.395/437.385
HO-68 25 Sep 11:04:22 11:10:42 36° 303° (WNW) 11:17:02 435.675
DELFI C3 25 Sep 11:08:46 11:12:48 66° 102° (ESE) 11:16:48 145.870
UNISAT 6 25 Sep 11:14:15 11:18:19 42° 262° (W) 11:22:24 437.425
BEESAT 3 25 Sep 11:20:34 11:24:19 40° 239° (WSW) 11:28:02 437.485
QB50P1 25 Sep 11:27:50 11:31:49 43° 69° (ENE) 11:35:49 145.935-145.965
DUCHIFAT 1 25 Sep 11:29:04 11:32:58 39° 68° (ENE) 11:36:53 145.980
ZACube-1 25 Sep 11:40:26 11:44:06 28° 294° (WNW) 11:47:49 437.345
POPSAT HIP 1 25 Sep 11:40:54 11:45:01 57° 72° (ENE) 11:49:10 437.405
COMPASS 1 25 Sep 11:42:01 11:43:34 12° 304° (NW) 11:45:06 437.405
BUGSAT 1 25 Sep 11:44:05 11:47:29 26° 65° (ENE) 11:50:53 437.445
Oscar 11 25 Sep 11:44:08 11:47:51 28° 295° (WNW) 11:51:33 145.826/435.025
JAS-2 25 Sep 11:48:20 11:54:42 59° 67° (ENE) 12:01:55 435.910
ANTELSAT 25 Sep 11:51:00 11:54:09 20° 268° (W) 11:57:19 437.575/2403.000
NANOSAT C BR1 25 Sep 11:59:12 12:03:25 84° 72° (ENE) 12:07:37 145.865
Cosmos 2499 25 Sep 12:02:59 12:08:21 22° 301° (WNW) 12:13:44 435.465 / 435.565
YUBILEINY 25 Sep 12:04:45 12:06:48 11° 38° (NE) 12:08:52 435.215
BEESAT 2 25 Sep 12:10:19 12:13:43 26° 243° (WSW) 12:17:04 435.950
GONETS M04 25 Sep 12:12:14 12:19:01 24° 305° (NW) 12:25:53
TIGRISAT 25 Sep 12:13:44 12:15:46 13° 272° (W) 12:17:48 435.000
PCSat 25 Sep 12:16:53 12:20:45 19° 26° (NNE) 12:24:35 145.827
ESTCUBE 1 25 Sep 12:19:32 12:23:40 33° 96° (E) 12:27:45 437.505/2401.250
QB50P2 25 Sep 12:19:59 12:24:07 54° 260° (W) 12:28:16 145.880/145.840
POLYITAN 1 25 Sep 12:22:15 12:26:22 53° 260° (W) 12:30:30 437.675
HUMSAT D 25 Sep 12:26:00 12:29:58 40° 291° (WNW) 12:33:58 437.325/437.525
AIST 2 25 Sep 12:29:40 12:33:31 34° 39° (NE) 12:37:23 435.215
AO-7 25 Sep 12:29:51 12:32:41 12° 26° (NNE) 12:35:30 29.400- 29.500
Oscar 19 25 Sep 12:30:59 12:35:01 23° 59° (ENE) 12:39:05 437.125/150
VELOX 1 25 Sep 12:31:34 12:35:03 22° 93° (E) 12:38:31 145.980
DX 1 25 Sep 12:33:49 12:36:26 15° 90° (E) 12:39:01 434.975-435.025
FUNcube-1 25 Sep 12:38:31 12:39:22 11° 305° (NW) 12:40:14 145.935
CUBEBUG 1 25 Sep 12:42:58 12:47:00 36° 97° (E) 12:51:00 437.445
DELFI C3 25 Sep 12:44:47 12:47:10 15° 300° (WNW) 12:49:32 145.870
HO-68 25 Sep 12:55:26 12:56:25 10° 326° (NNW) 12:57:24 435.675
QB50P1 25 Sep 13:04:31 13:07:47 22° 267° (W) 13:11:04 145.935-145.965
DUCHIFAT 1 25 Sep 13:05:25 13:08:48 23° 267° (W) 13:12:12 145.980
Gurwin Techsat 1B 25 Sep 13:05:57 13:10:07 24° 59° (ENE) 13:14:18 435.225
POPSAT HIP 1 25 Sep 13:18:27 13:21:10 17° 270° (W) 13:23:55 437.405
BUGSAT 1 25 Sep 13:18:57 13:22:44 36° 263° (W) 13:26:32 437.445
ITAMSAT 1 25 Sep 13:20:56 13:22:30 11° 49° (NE) 13:24:05 435.822/435.867
AISAT 25 Sep 13:23:25 13:27:51 73° 103° (ESE) 13:32:14 437.250
50 SAT 25 Sep 13:28:53 13:32:35 85° 105° (ESE) 13:36:16 437.505
TISAT 1 25 Sep 13:33:52 13:35:31 12° 88° (E) 13:37:10 437.305
AUBIESAT-1 25 Sep 13:34:25 13:37:31 35° 104° (ESE) 13:40:35 437.475
JAS-2 25 Sep 13:34:26 13:40:11 33° 270° (W) 13:46:37 435.910
SPROUT 25 Sep 13:37:07 13:41:19 56° 100° (E) 13:45:30 437.525
NANOSAT C BR1 25 Sep 13:38:22 13:39:44 11° 273° (W) 13:41:07 145.865
UKube-1 25 Sep 13:45:30 13:49:48 59° 102° (ESE) 13:54:03 .
ESTCUBE 1 25 Sep 13:56:23 14:00:28 33° 294° (WNW) 14:04:30 437.505/2401.250
YUBILEINY 25 Sep 13:58:42 14:06:50 40° 66° (ENE) 14:14:52 435.215
PCSat 25 Sep 13:59:53 14:05:17 59° 50° (NE) 14:10:38 145.827
Cosmos 2491 25 Sep 14:02:36 14:07:46 17° 72° (ENE) 14:12:56 435.465 / 435.565
VELOX 1 25 Sep 14:07:31 14:11:45 46° 291° (WNW) 14:15:56 145.980
AIST 2 25 Sep 14:08:09 14:12:05 40° 239° (WSW) 14:16:01 435.215
DX 1 25 Sep 14:08:45 14:13:05 66° 287° (WNW) 14:17:22 434.975-435.025
Oscar 19 25 Sep 14:08:47 14:13:56 63° 258° (WSW) 14:19:08 437.125/150
M-CUBED/EXP-1 PRIME 25 Sep 14:09:14 14:12:34 66° 293° (WNW) 14:15:48 437.505
AO-7 25 Sep 14:15:49 14:22:58 34° 51° (NE) 14:30:07 29.400- 29.500
CUBEBUG 1 25 Sep 14:19:28 14:23:12 28° 296° (WNW) 14:26:54 437.445
BEESAT 25 Sep 14:34:17 14:36:05 12° 86° (E) 14:37:54 436.000
Cosmos 2504 25 Sep 14:41:04 14:47:11 28° 63° (ENE) 14:53:33 435.465 / 435.565
Gurwin Techsat 1B 25 Sep 14:44:25 14:49:40 63° 258° (WSW) 14:54:59 435.225
PHONESAT 2.4 25 Sep 14:49:17 14:51:01 15° 179° (S) 14:52:47 2401.200-2431.200
ITAMSAT 1 25 Sep 14:55:52 15:00:56 57° 69° (ENE) 15:06:01 435.822/435.867
AISAT 25 Sep 15:01:04 15:03:49 16° 302° (WNW) 15:06:32 437.250
50 SAT 25 Sep 15:04:32 15:05:30 11° 302° (WNW) 15:06:28 437.505
TISAT 1 25 Sep 15:07:33 15:11:44 79° 286° (WNW) 15:15:53 437.305
AUBIESAT-1 25 Sep 15:09:26 15:11:50 18° 303° (WNW) 15:14:11 437.475
SPROUT 25 Sep 15:13:54 15:16:53 19° 299° (WNW) 15:19:52 437.525
UKube-1 25 Sep 15:22:25 15:25:27 19° 300° (WNW) 15:28:28 .
ITUPSAT 1 25 Sep 15:41:56 15:46:36 47° 100° (E) 15:51:14 437.325
PCSat 25 Sep 15:43:49 15:48:21 28° 249° (WSW) 15:52:52 145.827
DX 1 25 Sep 15:47:49 15:48:26 10° 307° (NW) 15:49:03 434.975-435.025
SO-50 25 Sep 15:51:15 15:54:30 18° 112° (ESE) 15:57:44 436.795
Cosmos 2491 25 Sep 15:54:14 16:02:57 72° 94° (E) 16:11:46 435.465 / 435.565
YUBILEINY 25 Sep 15:55:33 16:03:59 56° 270° (W) 16:12:22 435.215
O/OREOS (USA 219) 25 Sep 15:55:58 15:57:50 12° 37° (NE) 15:59:43 437.305
HORYU 2 25 Sep 15:56:21 15:58:28 13° 55° (NE) 16:00:36 437.375
SWISSCUBE 25 Sep 15:56:30 16:01:19 71° 103° (ESE) 16:06:06 437.505
AIST 1 25 Sep 16:00:45 16:03:35 17° 64° (ENE) 16:06:22
AO-7 25 Sep 16:06:49 16:15:09 76° 252° (WSW) 16:23:31 29.400- 29.500
BEESAT 25 Sep 16:09:48 16:14:38 84° 104° (ESE) 16:19:26 436.000
MOZHAYETS 4 25 Sep 16:23:02 16:26:54 25° 93° (E) 16:30:45
PHONESAT 2.4 25 Sep 16:25:44 16:26:27 11° 195° (SSW) 16:27:09 2401.200-2431.200
NOAA 15 25 Sep 16:32:00 16:34:08 12° 49° (NE) 16:36:15 137.62
BRITE-PL 25 Sep 16:32:05 16:36:15 21° 59° (ENE) 16:40:21 437.365/2234.400
Cosmos 2504 25 Sep 16:33:58 16:41:15 71° 265° (W) 16:48:56 435.465 / 435.565
ITAMSAT 1 25 Sep 16:36:41 16:40:46 23° 268° (W) 16:44:53 435.822/435.867
GOMX 1 25 Sep 16:38:09 16:39:47 11° 53° (NE) 16:41:24 467.674
Cubesat XI-IV 25 Sep 16:38:58 16:40:41 12° 49° (NE) 16:42:24 437.490
CUTE-I 25 Sep 16:39:50 16:41:41 12° 49° (NE) 16:43:32 437.470
TISAT 1 25 Sep 16:45:26 16:46:39 11° 305° (NW) 16:47:54 437.305
NOAA 18 25 Sep 16:57:15 17:00:10 15° 50° (NE) 17:03:05 137.9125
KKS-1 25 Sep 17:07:33 17:11:45 41° 98° (E) 17:15:56 437.445
ITUPSAT 1 25 Sep 17:20:12 17:24:13 27° 298° (WNW) 17:28:13 437.325
SO-50 25 Sep 17:29:36 17:34:28 81° 312° (NW) 17:39:15 436.795
HORYU 2 25 Sep 17:29:57 17:34:22 87° 74° (ENE) 17:38:49 437.375
O/OREOS (USA 219) 25 Sep 17:33:47 17:38:20 55° 58° (ENE) 17:42:52 437.305
SWISSCUBE 25 Sep 17:35:16 17:38:37 19° 302° (WNW) 17:41:57 437.505
CUBESAT XI-V 25 Sep 17:35:49 17:39:21 21° 90° (E) 17:42:51 437.345
AIST 1 25 Sep 17:37:22 17:41:38 60° 264° (W) 17:45:50
STARS 25 Sep 17:48:27 17:52:43 52° 101° (E) 17:56:59 437.465
BEESAT 25 Sep 17:48:52 17:51:48 16° 304° (NW) 17:54:45 436.000
Cosmos 2491 25 Sep 17:52:57 18:00:38 33° 298° (WNW) 18:08:25 435.465 / 435.565
YUBILEINY 25 Sep 17:55:39 17:58:42 12° 293° (WNW) 18:01:45 435.215
MOZHAYETS 4 25 Sep 17:59:50 18:04:15 44° 291° (WNW) 18:08:39
AO-7 25 Sep 18:03:59 18:09:21 18° 274° (W) 18:14:44 29.400- 29.500
HO-68 25 Sep 18:04:47 18:09:28 19° 46° (NE) 18:14:10 435.675
LilacSat-2 25 Sep 18:06:52 18:10:23 38° 70° (ENE) 18:13:55 437.200
NOAA 15 25 Sep 18:07:40 18:12:54 61° 69° (ENE) 18:18:09 137.62
BRITE-PL 25 Sep 18:08:26 18:14:09 80° 257° (WSW) 18:19:47 437.365/2234.400
GOMX 1 25 Sep 18:11:39 18:16:56 58° 71° (ENE) 18:21:59 467.674
Cubesat XI-IV 25 Sep 18:14:30 18:19:40 56° 69° (ENE) 18:24:54 437.490
CUTE-I 25 Sep 18:15:29 18:20:40 58° 69° (ENE) 18:25:54 437.470
GONETS M04 25 Sep 18:21:00 18:26:37 18° 49° (NE) 18:32:09
Cosmos 2504 25 Sep 18:29:37 18:33:19 15° 286° (WNW) 18:37:06 435.465 / 435.565
NOAA 18 25 Sep 18:34:29 18:39:55 71° 70° (ENE) 18:45:23 137.9125
CINEMA 3 25 Sep 18:42:31 18:45:12 16° 60° (ENE) 18:47:50 145.822/145.860
KKS-1 25 Sep 18:44:28 18:48:10 26° 297° (WNW) 18:51:50 437.445
DOVE 4 25 Sep 18:46:33 18:51:27 55° 71° (ENE) 18:56:06 437.250
HORYU 2 25 Sep 19:09:56 19:11:34 12° 273° (W) 19:13:12 437.375
SO-50 25 Sep 19:11:51 19:15:38 23° 332° (NNW) 19:19:23 436.795
CUBESAT XI-V 25 Sep 19:12:28 19:17:05 55° 289° (WNW) 19:21:39 437.345
O/OREOS (USA 219) 25 Sep 19:13:56 19:17:22 21° 258° (WSW) 19:20:47 437.305
STRAND 1 25 Sep 19:15:08 19:16:51 11° 85° (E) 19:18:34 437.568
RS-15 25 Sep 19:25:10 19:33:03 22° 97° (E) 19:41:08 29.354- 29.394
STARS 25 Sep 19:25:29 19:28:46 21° 299° (WNW) 19:32:02 437.465
COMPASS 1 25 Sep 19:25:39 19:28:07 15° 59° (ENE) 19:30:34 437.405
CUSAT 1 25 Sep 19:30:45 19:36:30 39° 87° (E) 19:43:22 437.405
CUTE 1.7 + AOD 2 25 Sep 19:41:25 19:45:19 38° 69° (ENE) 19:49:17 437.475
CANX-2 25 Sep 19:42:01 19:46:02 43° 70° (ENE) 19:50:06 2200.000
LilacSat-2 25 Sep 19:42:03 19:44:51 20° 268° (W) 19:47:40 437.200
SEEDS 25 Sep 19:47:47 19:51:32 32° 67° (ENE) 19:55:19 437.485
HO-68 25 Sep 19:48:55 19:56:01 69° 67° (ENE) 20:03:08 435.675
NOAA 15 25 Sep 19:48:56 19:53:05 23° 269° (W) 19:57:15 137.62
BRITE-PL 25 Sep 19:50:25 19:53:25 14° 275° (W) 19:56:25 437.365/2234.400
GOMX 1 25 Sep 19:50:58 19:55:17 24° 269° (W) 19:59:29 467.674
Cosmos 2499 25 Sep 19:51:47 19:58:39 39° 69° (ENE) 20:05:55 435.465 / 435.565
Cubesat XI-IV 25 Sep 19:55:49 20:00:07 24° 268° (W) 20:04:25 437.490
CUTE-I 25 Sep 19:56:53 20:01:06 24° 268° (W) 20:05:22 437.470
CUBEBUG 2 25 Sep 20:05:58 20:09:32 27° 66° (ENE) 20:13:05 437.445
GONETS M04 25 Sep 20:16:48 20:25:36 64° 75° (ENE) 20:34:17
NOAA 18 25 Sep 20:17:10 20:21:08 20° 269° (W) 20:25:07 137.9125
CINEMA 3 25 Sep 20:17:25 20:21:54 72° 258° (WSW) 20:26:14 145.822/145.860
AAUSAT CUBESAT 2 25 Sep 20:17:37 20:21:26 36° 68° (ENE) 20:25:16 437.432
FUNcube-1 25 Sep 20:24:35 20:27:28 19° 61° (ENE) 20:30:22 145.935
DOVE 4 25 Sep 20:25:32 20:29:25 22° 268° (W) 20:33:10 437.250
UWE-3 25 Sep 20:29:13 20:32:53 31° 67° (ENE) 20:36:35 435.000/436.395/437.385
DANDE 25 Sep 20:37:38 20:42:34 46° 90° (E) 20:49:01 436.750
STRAND 1 25 Sep 20:51:44 20:56:55 76° 103° (ESE) 21:02:04 437.568
SO-50 25 Sep 20:55:33 20:57:48 13° 357° (N) 21:00:01 436.795
COMPASS 1 25 Sep 20:58:59 21:03:09 71° 259° (W) 21:07:22 437.405
ZACube-1 25 Sep 21:03:53 21:07:50 45° 70° (ENE) 21:11:48 437.345
